#timestamp,LO_Frequency,Hit,StdDev 
1536152415.1,286047006.1,P
1536152416.0,286047006.1,N
1536152435.8,286047011.8,P
1536152455.7,286047011.6,Y
1536152475.5,286047004.6,P
1536152495.4,286047008.9,P
1536152515.2,286047013.3,P
1536152535.0,286047015.9,Y
1536152535.9,286047015.9,P
1536152555.8,286047012.3,P
1536152575.6,286047013.3,P
1536152595.5,286047017.2,Y
1536152615.3,286047003.3,P
1536152635.1,286047006.3,N
1536152655.9,286047006.5,N
1536152675.7,286047008.7,N
1536152695.5,286047009.9,Y
1536152715.4,286047004.7,P
1536152735.2,286047009.1,P
1536152755.1,286047009.5,P
1536152756.0,286047009.5,Y
1536152775.8,286047005.0,P
1536152795.6,286047004.9,P
1536152815.5,286047006.6,P
1536152835.3,286047009.6,Y
1536152855.2,286047008.8,P
1536152875.9,286047008.4,P
1536152895.7,286047009.5,P
1536152915.6,286047009.5,Y
1536152935.4,286047002.9,P
1536152955.2,286047005.1,N
1536152975.1,286047006.6,P
1536152976.0,286047006.6,Y
1536152995.8,286047004.1,P
1536153015.7,286047007.4,P
1536153035.5,286047006.6,P
1536153055.3,286047004.8,Y
1536153075.2,286047002.7,P
1536153095.0,286047003.0,N
1536153095.9,286047003.0,N
1536153115.8,286047007.5,Y
1536153135.6,286047005.9,P
1536153155.4,286047007.2,P
1536153175.3,286047006.2,P
1536153195.1,286047006.1,Y
1536153215.8,286047001.3,P
1536153235.7,286047002.9,N
1536153255.5,286047005.8,P
1536153275.4,286047006.9,Y
1536153295.2,286047005.5,P
1536153315.0,286047007.1,P
1536153315.9,286047007.1,P
1536153335.8,286047008.3,Y
1536153355.6,286047003.2,P
1536153375.4,286047005.2,P
1536153395.3,286047007.4,P
1536153415.1,286047005.7,Y
1536153435.9,286047002.0,P
1536153455.7,286047004.4,N
1536153475.5,286047006.0,P
1536153495.4,286047005.3,Y
1536153515.2,286047001.4,P
1536153535.0,286047003.4,N
1536153536.0,286047003.4,N
1536153555.8,286047003.2,N
1536153575.6,286047005.5,Y
1536153595.5,286047001.5,P
1536153615.3,286047005.9,P
1536153635.1,286047004.9,N
1536153655.9,286047004.7,N
1536153675.7,286047006.8,Y
1536153695.6,286047003.7,P
1536153715.4,286047003.5,P
1536153735.2,286047003.4,P
1536153755.1,286047007.1,Y
1536153756.0,286047007.1,P
1536153775.8,286047004.4,N
1536153795.6,286047003.0,N
1536153815.5,286047003.9,N
1536153835.3,286047005.6,Y
1536153855.2,286047004.4,P
1536153875.9,286047006.0,P
1536153895.7,286047007.5,P
1536153915.6,286047006.7,Y
1536153935.4,286047000.4,P
1536153955.2,286046999.8,N
1536153975.1,286047001.6,N
1536153976.0,286047001.6,N
1536153995.8,286047001.4,N
1536154015.7,286047003.7,N
1536154035.5,286047004.1,N
1536154055.3,286047003.0,N
1536154075.2,286047005.1,N
1536154095.0,286047006.6,Y
1536154095.9,286047006.6,P
1536154115.8,286047007.6,P
1536154135.6,286047005.2,N
1536154155.4,286047008.7,Y
1536154175.3,286047002.5,P
1536154195.1,286047002.5,N
1536154215.8,286047001.4,N
1536154235.7,286047003.9,N
1536154255.5,286047003.3,N
1536154275.3,286047003.8,N
1536154295.2,286047003.4,N
1536154315.0,286047007.1,Y
1536154315.9,286047007.1,P
1536154335.8,286047004.2,N
1536154355.6,286047005.3,P
1536154375.4,286047006.0,Y
1536154395.3,286047002.4,P
1536154415.1,286047004.4,P
1536154435.9,286047001.9,N
1536154455.7,286047004.3,Y
1536154475.5,286046999.7,P
1536154495.4,286046998.4,N
1536154515.2,286047000.5,N
1536154535.0,286046999.8,N
1536154536.0,286046999.8,N
1536154555.8,286047002.5,N
1536154575.6,286047001.7,N
1536154595.5,286047002.8,N
1536154615.3,286047006.0,Y
1536154635.1,286047006.3,P
1536154655.9,286047006.0,N
1536154675.7,286047005.8,N
1536154695.6,286047005.8,N
1536154715.4,286047004.8,N
1536154735.2,286047006.1,Y
1536154755.1,286047006.0,P
1536154756.0,286047006.0,P
1536154775.8,286047005.5,P
1536154795.7,286047010.1,Y
1536154815.5,286047005.3,P
1536154835.3,286047003.7,P
1536154855.2,286047001.8,N
1536154875.0,286047001.9,N
1536154875.9,286047001.9,N
1536154895.8,286046999.7,N
1536154915.6,286047002.8,N
1536154935.4,286047001.6,N
1536154955.3,286047001.6,N
1536154975.1,286047001.7,N
1536154995.8,286047001.3,N
1536155015.7,286047003.3,N
1536155035.5,286047001.9,N
1536155055.4,286047001.5,N
1536155075.2,286047005.5,Y
1536155095.0,286047001.9,P
1536155095.9,286047001.9,P
1536155115.8,286047003.5,P
1536155135.6,286047004.2,Y
1536155155.5,286047001.8,P
1536155175.3,286047002.1,P
1536155195.1,286047002.8,P
1536155215.9,286047005.0,Y
1536155235.7,286047002.0,P
1536155255.6,286047001.8,P
1536155275.4,286047004.0,P
1536155295.2,286047004.0,Y
1536155315.1,286047002.7,P
1536155316.0,286047002.7,P
1536155335.8,286047002.8,P
1536155355.6,286047000.2,N
1536155375.5,286047002.7,N
1536155395.3,286047005.6,Y
1536155415.2,286047004.2,P
1536155435.9,286047001.8,N
1536155455.7,286047000.4,N
1536155475.6,286047001.3,N
1536155495.4,286047004.3,Y
1536155515.2,286047003.4,P
1536155535.1,286047006.7,P
1536155536.0,286047006.7,P
1536155555.8,286047005.2,N
1536155575.7,286047004.4,N
1536155595.5,286047003.0,N
1536155615.3,286047005.6,Y
1536155635.2,286047001.0,P
1536155655.0,286046999.7,N
1536155655.9,286046999.7,N
1536155675.8,286047002.6,N
1536155695.6,286047004.4,N
1536155715.4,286047001.8,N
1536155735.3,286047000.3,N
1536155755.1,286047001.9,N
1536155756.0,286047001.9,N
1536155775.8,286047005.1,Y
1536155795.7,286047004.0,P
1536155815.5,286047001.5,N
1536155835.3,286047001.9,N
1536155855.2,286047000.3,N
1536155875.0,286047000.8,N
1536155875.9,286047000.8,N
1536155895.8,286046999.8,N
1536155915.6,286047003.2,N
1536155935.4,286047001.3,N
1536155955.3,286047000.4,N
1536155975.1,286047005.6,Y
1536155995.9,286047005.0,P
